owner,sensor,date,latitude,longitude,vertical_datum,direction_of_sea_water_velocity,sea_water_speed,upward_sea_water_velocity,qcFlag 
TABS,ioos:station:wmo:42045:1,2003-05-01T00:00:00Z,26.2168,-96.4998,2.0,161.3700404,15.80831743,-99999.0,'11111222,11111222,99999999' 
TABS,ioos:station:wmo:42045:1,2003-05-01T00:30:00Z,26.2168,-96.4998,2.0,163.3036819,17.71691282,-99999.0,'11111222,11111222,99999999' 
TABS,ioos:station:wmo:42045:1,2003-05-01T01:00:00Z,26.2168,-96.4998,2.0,175.946519,16.41104811,-99999.0,'11111222,11111222,99999999' 
TABS,ioos:station:wmo:42045:1,2003-05-01T01:30:00Z,26.2168,-96.4998,2.0,176.1463181,15.47498627,-99999.0,'11111222,11111222,99999999' 
TABS,ioos:station:wmo:42045:1,2003-05-01T02:00:00Z,26.2168,-96.4998,2.0,187.8404794,17.07967506,-99999.0,'11111222,11111222,99999999' 
TABS,ioos:station:wmo:42045:1,2003-05-01T02:30:00Z,26.2168,-96.4998,2.0,195.2031928,17.50257695,-99999.0,'11111222,11111222,99999999' 
TABS,ioos:station:wmo:42045:1,2003-05-01T03:00:00Z,26.2168,-96.4998,2.0,193.5340618,13.28903683,-99999.0,'11111222,11111222,99999999' 
TABS,ioos:station:wmo:42045:1,2003-05-01T03:30:00Z,26.2168,-96.4998,2.0,193.5252746,11.97203408,-99999.0,'11111222,11111222,99999999' 
TABS,ioos:station:wmo:42045:1,2003-05-01T04:00:00Z,26.2168,-96.4998,2.0,200.7303261,11.52626566,-99999.0,'11111222,11111222,99999999' 
TABS,ioos:station:wmo:42045:1,2003-05-01T04:30:00Z,26.2168,-96.4998,2.0,236.2655394,10.82220403,-99999.0,'11111222,11111222,99999999' 
TABS,ioos:station:wmo:42045:1,2003-05-01T05:00:00Z,26.2168,-96.4998,2.0,228.3603362,8.202402087,-99999.0,'11133222,11111222,99999999' 
TABS,ioos:station:wmo:42045:1,2003-05-01T05:30:00Z,26.2168,-96.4998,2.0,220.7827513,9.231522085,-99999.0,'11133222,11111222,99999999' 
TABS,ioos:station:wmo:42045:1,2003-05-01T06:00:00Z,26.2168,-96.4998,2.0,251.6602191,5.688945421,-99999.0,'11133222,11111222,99999999' 
TABS,ioos:station:wmo:42045:1,2003-05-01T06:30:00Z,26.2168,-96.4998,2.0,253.945397,5.785637389,-99999.0,'11133222,11111222,99999999' 
TABS,ioos:station:wmo:42045:1,2003-05-01T07:00:00Z,26.2168,-96.4998,2.0,294.5866929,4.662745972,-99999.0,'11133222,11111222,99999999' 
TABS,ioos:station:wmo:42045:1,2003-05-01T07:30:00Z,26.2168,-96.4998,2.0,310.1499095,4.264985346,-99999.0,'11133222,11111222,99999999' 
TABS,ioos:station:wmo:42045:1,2003-05-01T08:00:00Z,26.2168,-96.4998,2.0,321.1546495,4.814862407,-99999.0,'11133222,11111222,99999999' 
TABS,ioos:station:wmo:42045:1,2003-05-01T08:30:00Z,26.2168,-96.4998,2.0,349.7840638,4.623299687,-99999.0,'11133222,11111222,99999999' 
TABS,ioos:station:wmo:42045:1,2003-05-01T09:00:00Z,26.2168,-96.4998,2.0,5.566850671,7.525490017,-99999.0,'11133222,11111222,99999999' 
TABS,ioos:station:wmo:42045:1,2003-05-01T09:30:00Z,26.2168,-96.4998,2.0,16.53004333,10.36851484,-99999.0,'11111222,11111222,99999999' 
TABS,ioos:station:wmo:42045:1,2003-05-01T10:00:00Z,26.2168,-96.4998,2.0,30.6045923,10.66570673,-99999.0,'11111222,11111222,99999999' 
TABS,ioos:station:wmo:42045:1,2003-05-01T10:30:00Z,26.2168,-96.4998,2.0,54.79870929,11.88303833,-99999.0,'11111222,11111222,99999999' 
TABS,ioos:station:wmo:42045:1,2003-05-01T11:00:00Z,26.2168,-96.4998,2.0,59.10449789,12.97044718,-99999.0,'11111222,11111222,99999999' 
TABS,ioos:station:wmo:42045:1,2003-05-01T11:30:00Z,26.2168,-96.4998,2.0,58.388935,10.3214437,-99999.0,'11111222,11111222,99999999' 
TABS,ioos:station:wmo:42045:1,2003-05-01T12:00:00Z,26.2168,-96.4998,2.0,70.44654937,13.44540442,-99999.0,'11111222,11111222,99999999' 
TABS,ioos:station:wmo:42045:1,2003-05-01T12:30:00Z,26.2168,-96.4998,2.0,65.1884117,15.346612,-99999.0,'11111222,11111222,99999999' 
TABS,ioos:station:wmo:42045:1,2003-05-01T13:00:00Z,26.2168,-96.4998,2.0,71.78527288,14.81221793,-99999.0,'11111222,11111222,99999999' 
TABS,ioos:station:wmo:42045:1,2003-05-01T13:30:00Z,26.2168,-96.4998,2.0,68.17726252,14.92990623,-99999.0,'11111222,11111222,99999999' 
TABS,ioos:station:wmo:42045:1,2003-05-01T14:00:00Z,26.2168,-96.4998,2.0,83.02914875,19.36313249,-99999.0,'11111222,11111222,99999999' 
TABS,ioos:station:wmo:42045:1,2003-05-01T14:30:00Z,26.2168,-96.4998,2.0,95.305315,18.71015232,-99999.0,'11111222,11111222,99999999' 
TABS,ioos:station:wmo:42045:1,2003-05-01T15:00:00Z,26.2168,-96.4998,2.0,97.47301285,18.99130854,-99999.0,'11111222,11111222,99999999' 
TABS,ioos:station:wmo:42045:1,2003-05-01T15:30:00Z,26.2168,-96.4998,2.0,102.687026,18.85024403,-99999.0,'11111222,11111222,99999999' 
TABS,ioos:station:wmo:42045:1,2003-05-01T16:00:00Z,26.2168,-96.4998,2.0,101.466202,17.25436177,-99999.0,'11111222,11111222,99999999' 
TABS,ioos:station:wmo:42045:1,2003-05-01T16:30:00Z,26.2168,-96.4998,2.0,107.3707127,14.30228653,-99999.0,'11111222,11111222,99999999' 
TABS,ioos:station:wmo:42045:1,2003-05-01T17:00:00Z,26.2168,-96.4998,2.0,116.295523,15.21437478,-99999.0,'11111222,11111222,99999999' 
TABS,ioos:station:wmo:42045:1,2003-05-01T17:30:00Z,26.2168,-96.4998,2.0,113.6723695,15.24257196,-99999.0,'11111222,11111222,99999999' 
TABS,ioos:station:wmo:42045:1,2003-05-01T18:00:00Z,26.2168,-96.4998,2.0,104.7540381,16.64895192,-99999.0,'11111222,11111222,99999999' 
TABS,ioos:station:wmo:42045:1,2003-05-01T18:30:00Z,26.2168,-96.4998,2.0,115.283082,18.5908499,-99999.0,'11111222,11111222,99999999' 
TABS,ioos:station:wmo:42045:1,2003-05-01T19:00:00Z,26.2168,-96.4998,2.0,113.8491545,17.46094213,-99999.0,'11111222,11111222,99999999' 
TABS,ioos:station:wmo:42045:1,2003-05-01T19:30:00Z,26.2168,-96.4998,2.0,112.507842,17.31926384,-99999.0,'11111222,11111222,99999999' 
TABS,ioos:station:wmo:42045:1,2003-05-01T20:00:00Z,26.2168,-96.4998,2.0,107.5808166,16.12308283,-99999.0,'11111222,11111222,99999999' 
TABS,ioos:station:wmo:42045:1,2003-05-01T20:30:00Z,26.2168,-96.4998,2.0,115.7644756,18.56564839,-99999.0,'11111222,11111222,99999999' 
TABS,ioos:station:wmo:42045:1,2003-05-01T21:00:00Z,26.2168,-96.4998,2.0,121.8467555,19.91849643,-99999.0,'11111222,11111222,99999999' 
TABS,ioos:station:wmo:42045:1,2003-05-01T21:30:00Z,26.2168,-96.4998,2.0,119.2208672,20.07462079,-99999.0,'11111222,11111222,99999999' 
TABS,ioos:station:wmo:42045:1,2003-05-01T22:00:00Z,26.2168,-96.4998,2.0,120.200751,24.47158761,-99999.0,'11111222,11111222,99999999' 
TABS,ioos:station:wmo:42045:1,2003-05-01T22:30:00Z,26.2168,-96.4998,2.0,124.6875896,24.21356025,-99999.0,'11111222,11111222,99999999' 
TABS,ioos:station:wmo:42045:1,2003-05-01T23:00:00Z,26.2168,-96.4998,2.0,129.3823273,20.80399962,-99999.0,'11111222,11111222,99999999' 
TABS,ioos:station:wmo:42045:1,2003-05-01T23:30:00Z,26.2168,-96.4998,2.0,128.4072528,18.78476244,-99999.0,'11111222,11111222,99999999' 
TABS,ioos:station:wmo:42045:1,2003-05-02T00:00:00Z,26.2168,-96.4998,2.0,133.8073634,17.66735407,-99999.0,'11111222,11111222,99999999' 
TABS,ioos:station:wmo:42045:1,2003-05-02T00:30:00Z,26.2168,-96.4998,2.0,140.4439129,15.57711462,-99999.0,'11111222,11111222,99999999' 
TABS,ioos:station:wmo:42045:1,2003-05-02T01:00:00Z,26.2168,-96.4998,2.0,137.2539104,11.50645906,-99999.0,'11111222,11111222,99999999' 
TABS,ioos:station:wmo:42045:1,2003-05-02T01:30:00Z,26.2168,-96.4998,2.0,125.257337,7.605011506,-99999.0,'11133222,11111222,99999999' 
TABS,ioos:station:wmo:42045:1,2003-05-02T02:00:00Z,26.2168,-96.4998,2.0,159.270776,12.40290692,-99999.0,'11111222,11111222,99999999' 
TABS,ioos:station:wmo:42045:1,2003-05-02T02:30:00Z,26.2168,-96.4998,2.0,181.9141075,11.07618165,-99999.0,'11111222,11111222,99999999' 
TABS,ioos:station:wmo:42045:1,2003-05-02T03:00:00Z,26.2168,-96.4998,2.0,219.3312421,10.52371132,-99999.0,'11111222,11111222,99999999' 
TABS,ioos:station:wmo:42045:1,2003-05-02T03:30:00Z,26.2168,-96.4998,2.0,241.4549017,11.13331936,-99999.0,'11111222,11111222,99999999' 
TABS,ioos:station:wmo:42045:1,2003-05-02T04:00:00Z,26.2168,-96.4998,2.0,271.4385033,16.73527114,-99999.0,'11111222,11111222,99999999' 
TABS,ioos:station:wmo:42045:1,2003-05-02T04:30:00Z,26.2168,-96.4998,2.0,277.7655688,15.54252232,-99999.0,'11111222,11111222,99999999' 
TABS,ioos:station:wmo:42045:1,2003-05-02T05:00:00Z,26.2168,-96.4998,2.0,285.6699318,19.4010309,-99999.0,'11111222,11111222,99999999' 
TABS,ioos:station:wmo:42045:1,2003-05-02T05:30:00Z,26.2168,-96.4998,2.0,291.2589139,22.14702012,-99999.0,'11111222,11111222,99999999' 
TABS,ioos:station:wmo:42045:1,2003-05-02T06:00:00Z,26.2168,-96.4998,2.0,298.9982695,21.59752301,-99999.0,'11111222,11111222,99999999' 
TABS,ioos:station:wmo:42045:1,2003-05-02T06:30:00Z,26.2168,-96.4998,2.0,302.2918542,22.49979555,-99999.0,'11111222,11111222,99999999' 
TABS,ioos:station:wmo:42045:1,2003-05-02T07:00:00Z,26.2168,-96.4998,2.0,307.6221978,21.63986368,-99999.0,'11111222,11111222,99999999' 
TABS,ioos:station:wmo:42045:1,2003-05-02T07:30:00Z,26.2168,-96.4998,2.0,319.1282922,21.11950047,-99999.0,'11111222,11111222,99999999' 
TABS,ioos:station:wmo:42045:1,2003-05-02T08:00:00Z,26.2168,-96.4998,2.0,326.2145696,21.59728224,-99999.0,'11111222,11111222,99999999' 
TABS,ioos:station:wmo:42045:1,2003-05-02T08:30:00Z,26.2168,-96.4998,2.0,331.1945875,24.59319011,-99999.0,'11111222,11111222,99999999' 
TABS,ioos:station:wmo:42045:1,2003-05-02T09:00:00Z,26.2168,-96.4998,2.0,327.9039011,26.02828077,-99999.0,'11111222,11111222,99999999' 
TABS,ioos:station:wmo:42045:1,2003-05-02T09:30:00Z,26.2168,-96.4998,2.0,332.6246246,26.55372855,-99999.0,'11111222,11111222,99999999' 
TABS,ioos:station:wmo:42045:1,2003-05-02T10:00:00Z,26.2168,-96.4998,2.0,342.5942156,26.94378778,-99999.0,'11111222,11111222,99999999' 
TABS,ioos:station:wmo:42045:1,2003-05-02T10:30:00Z,26.2168,-96.4998,2.0,346.1618431,28.0954943,-99999.0,'11111222,11111222,99999999' 
TABS,ioos:station:wmo:42045:1,2003-05-02T11:00:00Z,26.2168,-96.4998,2.0,351.7544675,29.42418733,-99999.0,'11111222,11111222,99999999' 
TABS,ioos:station:wmo:42045:1,2003-05-02T11:30:00Z,26.2168,-96.4998,2.0,353.9176275,17.93094811,-99999.0,'11111222,11111222,99999999' 
TABS,ioos:station:wmo:42045:1,2003-05-02T12:00:00Z,26.2168,-96.4998,2.0,8.100602745,30.01951532,-99999.0,'11111222,11111222,99999999' 
TABS,ioos:station:wmo:42045:1,2003-05-02T12:30:00Z,26.2168,-96.4998,2.0,19.68947468,29.32450341,-99999.0,'11111222,11111222,99999999' 
TABS,ioos:station:wmo:42045:1,2003-05-02T13:00:00Z,26.2168,-96.4998,2.0,22.58319519,28.72231363,-99999.0,'11111222,11111222,99999999' 
TABS,ioos:station:wmo:42045:1,2003-05-02T13:30:00Z,26.2168,-96.4998,2.0,29.6611165,29.64433335,-99999.0,'11111222,11111222,99999999' 
TABS,ioos:station:wmo:42045:1,2003-05-02T14:00:00Z,26.2168,-96.4998,2.0,42.66053372,29.10048797,-99999.0,'11111222,11111222,99999999' 
TABS,ioos:station:wmo:42045:1,2003-05-02T14:30:00Z,26.2168,-96.4998,2.0,49.67083748,29.69811442,-99999.0,'11111222,11111222,99999999' 
TABS,ioos:station:wmo:42045:1,2003-05-02T15:00:00Z,26.2168,-96.4998,2.0,50.60880495,32.05102962,-99999.0,'11111222,11111222,99999999' 
TABS,ioos:station:wmo:42045:1,2003-05-02T15:30:00Z,26.2168,-96.4998,2.0,56.86626218,33.42503553,-99999.0,'11111222,11111222,99999999' 
TABS,ioos:station:wmo:42045:1,2003-05-02T16:00:00Z,26.2168,-96.4998,2.0,63.69123072,34.00198965,-99999.0,'11111222,11111222,99999999' 
TABS,ioos:station:wmo:42045:1,2003-05-02T16:30:00Z,26.2168,-96.4998,2.0,71.17244644,34.14707601,-99999.0,'11111222,11111222,99999999' 
TABS,ioos:station:wmo:42045:1,2003-05-02T17:00:00Z,26.2168,-96.4998,2.0,72.52046994,33.75884477,-99999.0,'11111222,11111222,99999999' 
TABS,ioos:station:wmo:42045:1,2003-05-02T17:30:00Z,26.2168,-96.4998,2.0,74.424456,32.77353963,-99999.0,'11111222,11111222,99999999' 
TABS,ioos:station:wmo:42045:1,2003-05-02T18:00:00Z,26.2168,-96.4998,2.0,82.23404685,32.04389802,-99999.0,'11111222,11111222,99999999' 
TABS,ioos:station:wmo:42045:1,2003-05-02T18:30:00Z,26.2168,-96.4998,2.0,85.61562787,33.74876146,-99999.0,'11111222,11111222,99999999' 
TABS,ioos:station:wmo:42045:1,2003-05-02T19:00:00Z,26.2168,-96.4998,2.0,84.05214245,35.32014298,-99999.0,'11111222,11111222,99999999' 
TABS,ioos:station:wmo:42045:1,2003-05-02T19:30:00Z,26.2168,-96.4998,2.0,92.97164801,32.21331712,-99999.0,'11111222,11111222,99999999' 
TABS,ioos:station:wmo:42045:1,2003-05-02T20:00:00Z,26.2168,-96.4998,2.0,95.38520417,31.53920735,-99999.0,'11111222,11111222,99999999' 
TABS,ioos:station:wmo:42045:1,2003-05-02T20:30:00Z,26.2168,-96.4998,2.0,102.9836221,35.25122551,-99999.0,'11111222,11111222,99999999' 
TABS,ioos:station:wmo:42045:1,2003-05-02T21:00:00Z,26.2168,-96.4998,2.0,108.1995347,36.17992399,-99999.0,'11111222,11111222,99999999' 
TABS,ioos:station:wmo:42045:1,2003-05-02T21:30:00Z,26.2168,-96.4998,2.0,115.2636857,36.03682145,-99999.0,'11111222,11111222,99999999' 
TABS,ioos:station:wmo:42045:1,2003-05-02T22:00:00Z,26.2168,-96.4998,2.0,118.1320576,38.43002082,-99999.0,'11111222,11111222,99999999' 
TABS,ioos:station:wmo:42045:1,2003-05-02T22:30:00Z,26.2168,-96.4998,2.0,122.022716,34.88877183,-99999.0,'11111222,11111222,99999999' 
TABS,ioos:station:wmo:42045:1,2003-05-02T23:00:00Z,26.2168,-96.4998,2.0,127.6855235,35.82363047,-99999.0,'11111222,11111222,99999999' 
TABS,ioos:station:wmo:42045:1,2003-05-02T23:30:00Z,26.2168,-96.4998,2.0,130.9696554,34.40805138,-99999.0,'11111222,11111222,99999999' 
TABS,ioos:station:wmo:42045:1,2003-05-03T00:00:00Z,26.2168,-96.4998,2.0,132.8770381,33.97858737,-99999.0,'11111222,11111222,99999999' 
TABS,ioos:station:wmo:42045:1,2003-05-03T00:30:00Z,26.2168,-96.4998,2.0,142.4345304,32.29637905,-99999.0,'11111222,11111222,99999999' 
TABS,ioos:station:wmo:42045:1,2003-05-03T01:00:00Z,26.2168,-96.4998,2.0,151.7424872,28.62073724,-99999.0,'11111222,11111222,99999999' 
TABS,ioos:station:wmo:42045:1,2003-05-03T01:30:00Z,26.2168,-96.4998,2.0,165.762955,20.08692361,-99999.0,'11111222,11111222,99999999' 
TABS,ioos:station:wmo:42045:1,2003-05-03T02:00:00Z,26.2168,-96.4998,2.0,172.3162328,22.13877142,-99999.0,'11111222,11111222,99999999' 
TABS,ioos:station:wmo:42045:1,2003-05-03T02:30:00Z,26.2168,-96.4998,2.0,178.8656316,21.72425603,-99999.0,'11111222,11111222,99999999' 
TABS,ioos:station:wmo:42045:1,2003-05-03T03:00:00Z,26.2168,-96.4998,2.0,190.3930016,21.45196728,-99999.0,'11111222,11111222,99999999' 
TABS,ioos:station:wmo:42045:1,2003-05-03T03:30:00Z,26.2168,-96.4998,2.0,199.6761517,22.18542314,-99999.0,'11111222,11111222,99999999' 
TABS,ioos:station:wmo:42045:1,2003-05-03T04:00:00Z,26.2168,-96.4998,2.0,206.3318209,20.89846406,-99999.0,'11111222,11111222,99999999' 
TABS,ioos:station:wmo:42045:1,2003-05-03T04:30:00Z,26.2168,-96.4998,2.0,219.8375791,20.43340892,-99999.0,'11111222,11111222,99999999' 
TABS,ioos:station:wmo:42045:1,2003-05-03T05:00:00Z,26.2168,-96.4998,2.0,234.8743546,21.48195755,-99999.0,'11111222,11111222,99999999' 
TABS,ioos:station:wmo:42045:1,2003-05-03T05:30:00Z,26.2168,-96.4998,2.0,244.5617895,23.18804002,-99999.0,'11111222,11111222,99999999' 
TABS,ioos:station:wmo:42045:1,2003-05-03T06:00:00Z,26.2168,-96.4998,2.0,260.8127919,24.61574496,-99999.0,'11111222,11111222,99999999' 
TABS,ioos:station:wmo:42045:1,2003-05-03T06:30:00Z,26.2168,-96.4998,2.0,264.8203289,27.36171413,-99999.0,'11111222,11111222,99999999' 
TABS,ioos:station:wmo:42045:1,2003-05-03T07:00:00Z,26.2168,-96.4998,2.0,275.1808563,29.68123987,-99999.0,'11111222,11111222,99999999' 
TABS,ioos:station:wmo:42045:1,2003-05-03T07:30:00Z,26.2168,-96.4998,2.0,287.2809107,25.11358198,-99999.0,'11111222,11111222,99999999' 
TABS,ioos:station:wmo:42045:1,2003-05-03T08:00:00Z,26.2168,-96.4998,2.0,300.753993,27.12439861,-99999.0,'11111222,11111222,99999999' 
TABS,ioos:station:wmo:42045:1,2003-05-03T08:30:00Z,26.2168,-96.4998,2.0,305.9701699,23.42689053,-99999.0,'11111222,11111222,99999999' 
TABS,ioos:station:wmo:42045:1,2003-05-03T09:00:00Z,26.2168,-96.4998,2.0,312.8381962,21.92885086,-99999.0,'11111222,11111222,99999999' 
TABS,ioos:station:wmo:42045:1,2003-05-03T09:30:00Z,26.2168,-96.4998,2.0,311.0611301,23.2622011,-99999.0,'11111222,11111222,99999999' 
TABS,ioos:station:wmo:42045:1,2003-05-03T10:00:00Z,26.2168,-96.4998,2.0,324.3757604,29.90706438,-99999.0,'11111222,11111222,99999999' 
TABS,ioos:station:wmo:42045:1,2003-05-03T10:30:00Z,26.2168,-96.4998,2.0,326.7021367,29.59949493,-99999.0,'11111222,11111222,99999999' 
TABS,ioos:station:wmo:42045:1,2003-05-03T11:00:00Z,26.2168,-96.4998,2.0,332.2088274,34.05864501,-99999.0,'11111222,11111222,99999999' 
TABS,ioos:station:wmo:42045:1,2003-05-03T11:30:00Z,26.2168,-96.4998,2.0,336.4085639,34.83116421,-99999.0,'11111222,11111222,99999999' 
TABS,ioos:station:wmo:42045:1,2003-05-03T12:00:00Z,26.2168,-96.4998,2.0,343.7829564,37.91881064,-99999.0,'11111222,11111222,99999999' 
TABS,ioos:station:wmo:42045:1,2003-05-03T12:30:00Z,26.2168,-96.4998,2.0,349.5649372,40.85575113,-99999.0,'11111222,11111222,99999999' 
TABS,ioos:station:wmo:42045:1,2003-05-03T13:00:00Z,26.2168,-96.4998,2.0,356.7616575,37.8804963,-99999.0,'11111222,11111222,99999999' 
TABS,ioos:station:wmo:42045:1,2003-05-03T13:30:00Z,26.2168,-96.4998,2.0,0.171567235,36.78016449,-99999.0,'11111222,11111222,99999999' 
TABS,ioos:station:wmo:42045:1,2003-05-03T14:00:00Z,26.2168,-96.4998,2.0,8.132485426,36.97178519,-99999.0,'11111222,11111222,99999999' 
TABS,ioos:station:wmo:42045:1,2003-05-03T14:30:00Z,26.2168,-96.4998,2.0,12.89246671,36.93098428,-99999.0,'11111222,11111222,99999999' 
TABS,ioos:station:wmo:42045:1,2003-05-03T15:00:00Z,26.2168,-96.4998,2.0,17.25378565,38.80623275,-99999.0,'11111222,11111222,99999999' 
TABS,ioos:station:wmo:42045:1,2003-05-03T15:30:00Z,26.2168,-96.4998,2.0,22.03921026,40.29437802,-99999.0,'11111222,11111222,99999999' 
TABS,ioos:station:wmo:42045:1,2003-05-03T16:00:00Z,26.2168,-96.4998,2.0,26.71736199,40.41483515,-99999.0,'11111222,11111222,99999999' 
TABS,ioos:station:wmo:42045:1,2003-05-03T16:30:00Z,26.2168,-96.4998,2.0,33.28528972,40.81585966,-99999.0,'11111222,11111222,99999999' 
TABS,ioos:station:wmo:42045:1,2003-05-03T17:00:00Z,26.2168,-96.4998,2.0,36.6642987,38.43424775,-99999.0,'11111222,11111222,99999999' 
TABS,ioos:station:wmo:42045:1,2003-05-03T17:30:00Z,26.2168,-96.4998,2.0,41.20881975,37.85649218,-99999.0,'11111222,11111222,99999999' 
TABS,ioos:station:wmo:42045:1,2003-05-03T18:00:00Z,26.2168,-96.4998,2.0,50.32998159,37.90926536,-99999.0,'11111222,11111222,99999999' 
TABS,ioos:station:wmo:42045:1,2003-05-03T18:30:00Z,26.2168,-96.4998,2.0,50.62797873,36.55685572,-99999.0,'11111222,11111222,99999999' 
TABS,ioos:station:wmo:42045:1,2003-05-03T19:00:00Z,26.2168,-96.4998,2.0,59.8378255,33.71477569,-99999.0,'11111222,11111222,99999999' 
TABS,ioos:station:wmo:42045:1,2003-05-03T19:30:00Z,26.2168,-96.4998,2.0,67.46822819,35.54311888,-99999.0,'11111222,11111222,99999999' 
TABS,ioos:station:wmo:42045:1,2003-05-03T20:00:00Z,26.2168,-96.4998,2.0,71.71050167,36.13546319,-99999.0,'11111222,11111222,99999999' 
TABS,ioos:station:wmo:42045:1,2003-05-03T20:30:00Z,26.2168,-96.4998,2.0,75.84740363,37.0134381,-99999.0,'11111222,11111222,99999999' 
TABS,ioos:station:wmo:42045:1,2003-05-03T21:00:00Z,26.2168,-96.4998,2.0,83.34408796,37.87527558,-99999.0,'11111222,11111222,99999999' 
TABS,ioos:station:wmo:42045:1,2003-05-03T21:30:00Z,26.2168,-96.4998,2.0,87.87835569,38.35629414,-99999.0,'11111222,11111222,99999999' 
TABS,ioos:station:wmo:42045:1,2003-05-03T22:00:00Z,26.2168,-96.4998,2.0,92.23197939,36.71785669,-99999.0,'11111222,11111222,99999999' 
TABS,ioos:station:wmo:42045:1,2003-05-03T22:30:00Z,26.2168,-96.4998,2.0,101.3893316,45.27149213,-99999.0,'11111222,11111222,99999999' 
TABS,ioos:station:wmo:42045:1,2003-05-03T23:00:00Z,26.2168,-96.4998,2.0,102.8771183,44.60172642,-99999.0,'11111222,11111222,99999999' 
TABS,ioos:station:wmo:42045:1,2003-05-03T23:30:00Z,26.2168,-96.4998,2.0,111.1293906,41.1677738,-99999.0,'11111222,11111222,99999999' 
TABS,ioos:station:wmo:42045:1,2003-05-04T00:00:00Z,26.2168,-96.4998,2.0,115.6797388,39.945414,-99999.0,'11111222,11111222,99999999' 
TABS,ioos:station:wmo:42045:1,2003-05-04T00:30:00Z,26.2168,-96.4998,2.0,124.0659529,30.00992669,-99999.0,'11111222,11111222,99999999' 
TABS,ioos:station:wmo:42045:1,2003-05-04T01:00:00Z,26.2168,-96.4998,2.0,131.2486573,27.45213289,-99999.0,'11111222,11111222,99999999' 
TABS,ioos:station:wmo:42045:1,2003-05-04T01:30:00Z,26.2168,-96.4998,2.0,138.229071,23.22290464,-99999.0,'11111222,11111222,99999999' 
TABS,ioos:station:wmo:42045:1,2003-05-04T02:00:00Z,26.2168,-96.4998,2.0,141.9232133,25.16558165,-99999.0,'11111222,11111222,99999999' 
TABS,ioos:station:wmo:42045:1,2003-05-04T02:30:00Z,26.2168,-96.4998,2.0,160.3358924,22.85271319,-99999.0,'11111222,11111222,99999999' 
TABS,ioos:station:wmo:42045:1,2003-05-04T03:00:00Z,26.2168,-96.4998,2.0,165.2050463,21.06849069,-99999.0,'11111222,11111222,99999999' 
TABS,ioos:station:wmo:42045:1,2003-05-04T03:30:00Z,26.2168,-96.4998,2.0,182.5904373,17.47786314,-99999.0,'11111222,11111222,99999999' 
TABS,ioos:station:wmo:42045:1,2003-05-04T04:00:00Z,26.2168,-96.4998,2.0,193.3417419,16.81380385,-99999.0,'11111222,11111222,99999999' 
TABS,ioos:station:wmo:42045:1,2003-05-04T04:30:00Z,26.2168,-96.4998,2.0,207.5485621,16.67010798,-99999.0,'11111222,11111222,99999999' 
TABS,ioos:station:wmo:42045:1,2003-05-04T05:00:00Z,26.2168,-96.4998,2.0,229.7891121,19.5632436,-99999.0,'11111222,11111222,99999999' 
TABS,ioos:station:wmo:42045:1,2003-05-04T05:30:00Z,26.2168,-96.4998,2.0,236.1629295,19.50332279,-99999.0,'11111222,11111222,99999999' 
TABS,ioos:station:wmo:42045:1,2003-05-04T06:00:00Z,26.2168,-96.4998,2.0,246.1697617,20.61767446,-99999.0,'11111222,11111222,99999999' 
TABS,ioos:station:wmo:42045:1,2003-05-04T06:30:00Z,26.2168,-96.4998,2.0,254.8012265,23.91650685,-99999.0,'11111222,11111222,99999999' 
TABS,ioos:station:wmo:42045:1,2003-05-04T07:00:00Z,26.2168,-96.4998,2.0,267.1844596,21.78629156,-99999.0,'11111222,11111222,99999999' 
TABS,ioos:station:wmo:42045:1,2003-05-04T07:30:00Z,26.2168,-96.4998,2.0,280.5465529,24.42255105,-99999.0,'11111222,11111222,99999999' 
TABS,ioos:station:wmo:42045:1,2003-05-04T08:00:00Z,26.2168,-96.4998,2.0,288.5754758,28.44161036,-99999.0,'11111222,11111222,99999999' 
TABS,ioos:station:wmo:42045:1,2003-05-04T08:30:00Z,26.2168,-96.4998,2.0,293.670655,28.86869758,-99999.0,'11111222,11111222,99999999' 
TABS,ioos:station:wmo:42045:1,2003-05-04T09:00:00Z,26.2168,-96.4998,2.0,303.1476703,29.57239422,-99999.0,'11111222,11111222,99999999' 
TABS,ioos:station:wmo:42045:1,2003-05-04T09:30:00Z,26.2168,-96.4998,2.0,308.3321389,27.28087975,-99999.0,'11111222,11111222,99999999' 
TABS,ioos:station:wmo:42045:1,2003-05-04T10:00:00Z,26.2168,-96.4998,2.0,316.7004293,32.41390134,-99999.0,'11111222,11111222,99999999' 
TABS,ioos:station:wmo:42045:1,2003-05-04T10:30:00Z,26.2168,-96.4998,2.0,322.8830201,29.64627633,-99999.0,'11111222,11111222,99999999' 
TABS,ioos:station:wmo:42045:1,2003-05-04T11:00:00Z,26.2168,-96.4998,2.0,325.616172,32.97102516,-99999.0,'11111222,11111222,99999999' 
TABS,ioos:station:wmo:42045:1,2003-05-04T11:30:00Z,26.2168,-96.4998,2.0,332.8753949,34.78593394,-99999.0,'11111222,11111222,99999999' 
TABS,ioos:station:wmo:42045:1,2003-05-04T12:00:00Z,26.2168,-96.4998,2.0,335.5890657,34.7462113,-99999.0,'11111222,11111222,99999999' 
TABS,ioos:station:wmo:42045:1,2003-05-04T12:30:00Z,26.2168,-96.4998,2.0,343.975161,37.52831598,-99999.0,'11111222,11111222,99999999' 
TABS,ioos:station:wmo:42045:1,2003-05-04T13:00:00Z,26.2168,-96.4998,2.0,353.50053,41.25516937,-99999.0,'11111222,11111222,99999999' 
TABS,ioos:station:wmo:42045:1,2003-05-04T13:30:00Z,26.2168,-96.4998,2.0,358.383159,43.58735826,-99999.0,'11111222,11111222,99999999' 
TABS,ioos:station:wmo:42045:1,2003-05-04T14:00:00Z,26.2168,-96.4998,2.0,1.981226438,45.41714434,-99999.0,'11111222,11111222,99999999' 
TABS,ioos:station:wmo:42045:1,2003-05-04T14:30:00Z,26.2168,-96.4998,2.0,3.039494232,46.58552672,-99999.0,'11111222,11111222,99999999' 
TABS,ioos:station:wmo:42045:1,2003-05-04T15:00:00Z,26.2168,-96.4998,2.0,10.93857916,47.48267579,-99999.0,'11111222,11111222,99999999' 
TABS,ioos:station:wmo:42045:1,2003-05-04T15:30:00Z,26.2168,-96.4998,2.0,15.45094988,47.25791574,-99999.0,'11111222,11111222,99999999' 
TABS,ioos:station:wmo:42045:1,2003-05-04T16:00:00Z,26.2168,-96.4998,2.0,19.28010239,50.82016627,-99999.0,'11111222,11111222,99999999' 